Погода в Уральске

Погода в Уральске : погода сейчас, прогноз погоды и архив. Всё, что Вы хотите узнать о погоде в Уральске!

Хотите узнать прогноз погоды в Уральске? Тогда Вам сюда: Погода в Уральске

Поиск расширенной информации на нашем сайте:

Другие новости

Новости СМИ2

Главная страница сайта

Новости сайта

03.07.2017

Напоминаем, что на нашем специализированном сайте Метеоцентр.Азия вы можете получить высокодетализированные автоматические прогнозы погоды по пунктам России, СНГ и мира в авиационном формате (включающие направление и скорость ветра, видимость, явления погоды, количество и форму облачности, нижнюю и верхнюю границу облачности).


Погода в Уральске - сегодня

Время (UTC), дата Ветер
(°,м/с) 
Видим.   Явления Облачность Т
(°С)
Тd
(°С)
f(%) Тe
(°С)
Pmin
(гПа)
dP
(гПа)
Po
(мм)
O2
(г/м3)
Тmin Tmax R s Состояние
почвы
06 10.12.17 220 (ЮЗ) 10 км  слаб. снег  10/10 600 м 
[Sc]
-5.6 -7.1 89 -5  1026.2  0.5  766  316  -7.4         
09 10.12.17 220 (ЮЗ) 10 км  {снег}  10/10 600 м 
[Sc]
-4.5 -7.3 81 -6  1026.6  0.5  766  315           
12 10.12.17 190 (Ю) 10 км  {снег}  10/10 600 м 
[Sc]
-3.6 -6.5 80 -5  1026.8  0.2  767  314           
15 10.12.17 190 (Ю) н/о    10/10 600 м 
[Sc]
-4 -6.6 82 -5  1027.6  0.8  767  314    -3.6  0.0     
18 10.12.17 190 (Ю) н/о    10/10 600 м 
[Sc]
-4.8 -8 78 -4  1027.7  0.1  767  316    -3.6  0.0     
21 10.12.17 170 (Ю) н/о    10/10 600 м 
[Sc]
-4.8 +14.9 100 +4  1028  0.3  767  311           
00 11.12.17 020 (С) н/о    10/10 600 м 
[Sc]
-4.4 -7.1 81 -6  1028.3  0.3  768  315           
03 11.12.17 170 (Ю) н/о  слаб. снег  10/10 600 м 
[Ns]
-4 -5.5 89 -6  1028.4  0.1  768  315      0.0  равномерный
сухой снег
100% 
06 11.12.17 170 (Ю) 10 км  слаб. снег  10/10 600 м 
[Ns]
-4.8 -6.5 88 -6  1029.7  1.2  769  316  -4.9    0.0     
09 11.12.17 190 (Ю) 10 км  в посл. час снег  10/10 600 м 
[Ns]
-2.1 -6.1 74 -4  1030  0.4  769  313           
12 11.12.17 170 (Ю) 10 км  {снег}  10/10 600 м 
[Ns]
-2.3 -7.1 70 -4  1030.1  0.1  769  313           
15 11.12.17 160 (Ю) н/о    8/8 600 м 
[Sc]
-4 -7.8 75 -5  1030.4  0.3  769  315    -2.1     
18 11.12.17 140 (ЮВ) н/о    8/0 средняя 
[Ac lent]
-5.5 -8.1 82 -8  1030.5  769  317    -2.1     
21 11.12.17 140 (ЮВ) н/о    10/10 600 м 
[Sc]
-4.2 -6.5 84 -6  1029.7  -0.7  769  315           
00 12.12.17 160 (Ю) н/о  слаб. снег  10/10 600 м 
[Ns]
-4.7 -6.4 88 -6  1029.9  0.1  769  316           
03 12.12.17 170 (Ю) н/о  слаб. снег  10/10 300 м 
[Ns]
-4.8 -6.5 88 -6  1029.5  -0.4  769  316      равномерный
сухой снег
100% 
06 12.12.17 150 (ЮВ) 10 км  {снег}  10/10 600 м 
[Ns]
-4 -5.5 89 -5  1030  0.6  769  315  -5.7       
09 12.12.17 170 (Ю) 10 км  {снег}  10/10 600 м 
[Ns]
-3.5 -6 83 -6  1029.6  -0.4  769  314           
12 12.12.17 150 (ЮВ) 10 км  {снег}  10/10 600 м 
[Sc]
-3.7 -5.2 89 -7  1029.8  0.2  769  315           
15 12.12.17 180 (Ю) н/о    10/10 600 м 
[Sc]
-3.9 -6.1 85 -7  1031.2  1.4  770  315    -3.4  0.5     
18 12.12.17 150 (ЮВ) н/о    10/10 600 м 
[Sc]
-4.4 -5.3 93 -8  1030.9  -0.4  770  316    -3.4  0.5     
21 12.12.17 160 (Ю) н/о    8/6 600 м средняя 
[Sc|Ac und]
-4.1 -5 93 -7  1031.1  0.3  770  316           
00 13.12.17 140 (ЮВ) н/о  слаб. снег  10/10 600 м 
[Sc]
-4.4 -6 89 -7  1031.2  770  316           
03 13.12.17 120 (ЮВ) н/о  {снег}  8/8 600 м 
[Sc]
-4.1 -5.7 89 -7  1030.9  -0.2  770  316      0.3  равномерный
сухой снег
100% 
06 13.12.17 050 (СВ) 10 км  {снег}  10/0 средняя 
[Ac und]
-5.8 -8.1 84 -11  1031.7  0.7  770  318  -4.5    0.3     
Время (UTC), дата Ветер
(°,м/с) 
Видим.   Явления Облачность Т
(°С)
Тd
(°С)
f(%) Тe
(°С)
Pmin
(гПа)
dP
(гПа)
Po
(мм)
O2
(г/м3)
Тmin Tmax R s Состояние
почвы

Для получения пояснительной информации подведите курсор к названию столбца.

ПОГОДА в Уральске - архив

Всё, что Вы хотите узнать о погоде в Уральске - удобно и подробно!

Выберите нужную дату (начиная с 1 января 2015* года) и нажмите кнопку "Найти".
Будут отображены архивные сводки погоды по пункту Уральск, начиная с указанной даты.


Отображать данные в формате CSV (для использования в таблицах Excel)


Внимание! Наш архив погоды предназначен исключительно для личного некоммерческого использования в познавательных целях. Если Вам необходимы официальные справки о состоянии погоды (для производственных, юридических, коммерческих и т.п. целей), обращайтесь в органы Росгидромета.

*Примечание: данная дата относится к архиву по метеостанциям СССР (Россия, СНГ, Балтия).
Архив по метеостанциям Зарубежной Европы и Азии (кроме Китая) хранится 10 дней, по другим регионам земного шара (Китай, Африка, Америка, Австралия, Океания) - 1 день.

Уральск - район местоположения метеостанции


Название, широта, долгота, высота метеостанции:
Уральск (город) 51.2°ш. 51.3°д. 37 м над ур. моря [Казахстан]

Дополнительная информация

В oтличие oт бoльшинства пoгoдных сайтoв мы публикуем пoдрoбную метеoинфoрмацию в детальнoм прoфессиoнальнoм фoрмате.

Характеристики температуры и влажнoсти вoздуха измеряются на высoте 2 м в тени вдали oт зданий и деревьев.
Скoрoсть ветра измеряется на высoте 10 м (на урoвне рoста челoвека скoрoсть ветра ниже в 1.5-2 раза). Если метеoстанция нахoдится в гoрoде или в лесу, тo скoрoсть ветра занижена на 2-4 м/с пo сравнению с oткрытым местoм. Скoрoсть ветра над акватoриями крупных рек и oзёр, а также на вершинах хoлмoв на 2-5 м/с выше, чем в oбычных услoвиях.
Атмoсфернoе давление в разных тoчках местнoсти мoжет значительнo oтличаться oт давления на метеoстанции, в зависимoсти oт услoвий рельефа (при пoдъёме на 10 м давление пoнижается примернo на 1 мм рт.ст.).